Content
SEND FEEDBACK

Daily
Averages
Monthly
Summary
United States of America

CHELSEA, MICHIGAN


Home > North America > United States > Michigan
Elevation: 900 feet     Latitude: 42 19N     Longitude: 084 01W

WEATHER
 
SELECT A DAY
Number of Records: 204,337;   Date Range: 1/1/95 - 9/16/14
 
SHARE

PRINT THIS DATA

[ ← Previous Day ]
WEATHER ALMANAC - MARCH 20, 2013
[ Next Day → ]
[ °C ]   °F
Weather ElementAverageHighLow
Temperature24.6 °F30.2 °F (11:48 am)17.1 °F (10:53 pm)
Dewpoint13.3 °F16 °F (9:53 am)8.1 °F (7:53 pm)
Humidity62.6 %71 % (11:53 pm)47 % (3:53 pm)
Barometer29.93 in29.97 in (8:53 pm)29.89 in (4:38 pm)
Wind Speed13 mph18.4 mph (4:53 pm)
Wind Gust26.5 mph (4:53 pm)
Weather ElementAverage
Visibility7.9 mi
Wind DirectionWNW (283.1 °)

Weather ElementTotal
Precipitation---
Heating Degree Days41.4 (Base 65)
Averaged from 32 records on March 20, 2013
WEATHER CONDITIONS BREAKOUT
WIND DIRECTION BREAKOUT
WEATHER BY HOUR - MARCH 20, 2013
[ °C ]   °F
Local TimeTemperatureDewpointHumidityBarometerVisibilityWind DirectionWind SpeedGust SpeedPrecipitationEventsConditions
1:53 AM26.1 °F14.0 °F60 %29.95 in10.0 miWest (280°)13.8 mphClear
2:53 AM25.0 °F14.0 °F63 %29.95 in10.0 miWest (280°)11.5 mphClear
3:53 AM24.1 °F14.0 °F65 %29.94 in10.0 miWest (270°)9.2 mphPartly Cloudy
4:53 AM25.0 °F14.0 °F63 %29.93 in10.0 miWest (280°)11.5 mphMostly Cloudy
5:53 AM24.1 °F14.0 °F65 %29.93 in10.0 miWest (280°)9.2 mphScattered Clouds
6:53 AM24.1 °F15.1 °F69 %29.93 in10.0 miWest (280°)9.2 mphOvercast
7:53 AM24.1 °F14.0 °F65 %29.94 in10.0 miWNW (290°)10.4 mphOvercast
8:53 AM25.0 °F14.0 °F63 %29.94 in9.0 miWest (280°)16.1 mph23.0 mph0.00 inOvercast
9:53 AM25.0 °F16.0 °F69 %29.95 in2.5 miWest (260°)12.7 mph0.00 inSnowLight Snow
10:03 AM24.8 °F15.8 °F69 %29.91 in4.0 miWest (280°)15.0 mph0.00 inSnowLight Snow
10:27 AM24.8 °F15.8 °F69 %29.92 in2.5 miWNW (300°)12.7 mph24.2 mph0.00 inSnowLight Snow
10:31 AM24.8 °F15.8 °F69 %29.91 in3.0 miWNW (290°)10.4 mph23.0 mph0.00 inSnowLight Snow
10:53 AM26.1 °F12.9 °F58 %29.94 in8.0 miWNW (290°)15.0 mph21.9 mph0.00 inSnowLight Snow
11:48 AM30.2 °F15.8 °F55 %29.91 in9.0 miWNW (290°)13.8 mph25.3 mph0.00 inMostly Cloudy
11:53 AM27.0 °F14.0 °F58 %29.94 in9.0 miWNW (300°)11.5 mph20.7 mph0.00 inSnowLight Snow
12:53 PM27.0 °F10.9 °F51 %29.93 in10.0 miWNW (290°)17.3 mph24.2 mph0.00 inOvercast
1:53 PM30.0 °F14.0 °F51 %29.93 in10.0 miWNW (300°)15.0 mphOvercast
2:53 PM28.9 °F12.0 °F49 %29.92 in10.0 miWest (270°)12.7 mph20.7 mphOvercast
3:53 PM28.0 °F10.0 °F47 %29.91 in10.0 miWSW (250°)13.8 mph0.00 inOvercast
4:38 PM24.8 °F15.8 °F69 %29.89 in2.0 miWNW (300°)16.1 mph0.00 inSnowLight Snow
4:46 PM26.6 °F15.8 °F64 %29.89 in6.0 miWNW (300°)11.5 mph0.00 inSnowLight Snow
4:53 PM25.0 °F15.1 °F66 %29.93 in6.0 miWest (280°)18.4 mph26.5 mph0.00 inSnowLight Snow
5:03 PM24.8 °F15.8 °F69 %29.90 in2.0 miWest (280°)18.4 mph23.0 mph0.00 inSnowLight Snow
5:21 PM24.8 °F15.8 °F69 %29.90 in4.0 miWest (270°)18.4 mph21.9 mph0.00 inSnowLight Snow
5:34 PM24.8 °F15.8 °F69 %29.90 in9.0 miWest (280°)12.7 mph20.7 mph0.00 inOvercast
5:53 PM25.0 °F12.0 °F58 %29.94 in10.0 miWest (270°)17.3 mph24.2 mph0.00 inOvercast
6:53 PM23.0 °F10.0 °F58 %29.95 in7.0 miWNW (300°)13.8 mph0.00 inSnowLight Snow
7:53 PM21.9 °F8.1 °F55 %29.96 in10.0 miWNW (290°)11.5 mph0.00 inOvercast
8:53 PM19.9 °F10.0 °F65 %29.97 in10.0 miWNW (290°)10.4 mphMostly Cloudy
9:53 PM18.0 °F8.1 °F65 %29.97 in10.0 miWest (280°)8.1 mphClear
10:53 PM17.1 °F8.1 °F68 %29.97 in10.0 miWest (280°)6.9 mphClear
11:53 PM17.1 °F9.0 °F71 %29.96 in10.0 miWest (280°)12.7 mphClear
Hourly data recorded from KARB, located miles away from Chelsea, Michigan







STORIES FROM OUR PARTNERS